Flag for Mongolia Weather past 2 weeks in Ulaanbaatar, Mongolia

Now
37 °F

Scattered clouds.


Feels Like: 33 °F
Forecast: 25 / 52 °F
Wind: 6 mph from Northwest

Location: Ulan-Bator


UV Index: 3 (Moderate)

Visibility: N/A


Pressure: 30.07 "Hg

Humidity: 45%

Dew point: 18 °F

Location of UlaanbaatarLocation

Historic Weather in Ulaanbaatar

°F

Ulaanbaatar temperature yesterday

Maximum temperature yesterday: 37 °F (at 6:00 PM)
Minimum temperature yesterday: 23 °F (at 4:30 AM)
Average temperature yesterday: 32 °F

Past Weeks' High & Low Weather Summary

 TemperatureHumidityPressure
High68 °F (Apr 12, 3:00 PM)93% (Apr 9, 5:30 AM)30.27 "Hg (Apr 9, 5:30 AM)
Low19 °F (Apr 5, 6:00 AM)8% (Apr 5, 6:00 PM)29.71 "Hg (Apr 16, 6:30 AM)
Average44 °F48%30.02 "Hg
* Reported Apr 4 8:00 PM — Apr 19 8:00 PM, Ulaanbaatar, Weather by CustomWeather, © 2014

Note: Actual official high and low records may vary slightly from our data, if they occured in-between our weather recording intervals... More about our weather records

Advertising

Historic Weather Conditions — Data for Previous 24 hours

 ConditionsComfort  
Time TempWeatherWind HumidityBarometerVisibility
8:00 PM
Apr 19
37 °FScattered clouds.6 mph45%30.07 "HgN/A
7:30 PM41 °FScattered clouds.6 mph36%30.07 "HgN/A
7:00 PM43 °FScattered clouds.8 mph31%30.07 "HgN/A
6:30 PM43 °FScattered clouds.10 mph29%30.07 "HgN/A
6:00 PM43 °FScattered clouds.10 mph31%30.07 "HgN/A
5:30 PM43 °FScattered clouds.13 mph31%30.07 "HgN/A
5:00 PM43 °FScattered clouds.13 mph31%30.07 "HgN/A
4:30 PM43 °FPartly sunny.15 mph34%30.07 "HgN/A
4:00 PM43 °FPartly sunny.13 mph31%30.07 "HgN/A
3:30 PM43 °FPartly sunny.10 mph31%30.07 "HgN/A
3:00 PM43 °FScattered clouds.13 mph34%30.07 "HgN/A
2:30 PM43 °FScattered clouds.15 mph34%30.09 "HgN/A
2:00 PM43 °FScattered clouds.13 mph36%30.09 "HgN/A
1:30 PM43 °FScattered clouds.13 mph46%30.09 "HgN/A
1:00 PM43 °FScattered clouds.10 mph36%30.09 "HgN/A
12:30 PM41 °FScattered clouds.15 mph36%30.12 "HgN/A
12:00 PM43 °FScattered clouds.15 mph36%30.12 "HgN/A
11:30 AM41 °FScattered clouds.15 mph39%30.12 "HgN/A
11:00 AM41 °FScattered clouds.15 mph39%30.15 "HgN/A
10:30 AM39 °FPassing clouds.15 mph52%30.15 "HgN/A
10:00 AM39 °FPassing clouds.13 mph56%30.15 "HgN/A
9:30 AM39 °FPassing clouds.10 mph56%30.15 "HgN/A
9:00 AM37 °FPassing clouds.10 mph60%30.15 "HgN/A
8:30 AM36 °FPartly sunny.6 mph65%30.15 "HgN/A
8:00 AM34 °FPartly sunny.6 mph70%30.15 "HgN/A
7:30 AM34 °FScattered clouds.8 mph70%30.12 "HgN/A
7:00 AM32 °FScattered clouds.8 mph75%30.12 "HgN/A
6:30 AM30 °FPassing clouds.8 mph80%30.12 "HgN/A
6:00 AM30 °FPassing clouds.6 mph80%30.12 "HgN/A
5:00 AM34 °FPassing clouds.6 mph75%30.12 "HgN/A
4:30 AM32 °FPassing clouds.6 mph80%30.12 "HgN/A
4:00 AM34 °FPassing clouds.3 mph75%30.09 "HgN/A
3:30 AM34 °FPassing clouds.3 mph70%30.09 "HgN/A
3:00 AM34 °FPassing clouds.8 mph70%30.09 "HgN/A
2:30 AM34 °FPassing clouds.10 mph75%30.09 "HgN/A
2:00 AM34 °FPassing clouds.6 mph75%30.09 "HgN/A
1:30 AM34 °FPassing clouds.6 mph81%30.09 "HgN/A
1:00 AM34 °FPassing clouds.6 mph81%30.09 "HgN/A
12:30 AM34 °FRain. Passing clouds.10 mph87%30.09 "Hg2 mi
12:00 AM36 °FLight rain. Passing clouds.8 mph75%30.09 "HgN/A
11:30 PM
Apr 18
36 °FPassing clouds.6 mph75%30.09 "HgN/A
11:00 PM36 °FPassing clouds.6 mph81%30.09 "HgN/A
10:30 PM36 °FPassing clouds.6 mph75%30.09 "HgN/A
10:00 PM36 °FPassing clouds.6 mph81%30.09 "HgN/A
9:30 PM36 °FLight rain. Passing clouds.6 mph87%30.09 "HgN/A
9:00 PM36 °FLight rain. Passing clouds.6 mph81%30.09 "HgN/A
8:30 PM36 °FLight rain. Partly sunny.8 mph81%30.09 "HgN/A
8:00 PM37 °FLight rain. Partly sunny.8 mph75%30.09 "HgN/A
Weather by CustomWeather, © 2014

See weather overview